Kicking Horse, Canada 16 day weather forecast

Slopes altitude range 1190 m - 2445m

Number of lifts: 5 Pistes: 70km

In some cases the lift and piste totals shown are for the ski domain (e.g. Three Valleys) rather than individual resort (e.g. Courchevel)

Overview

The 16 day weather forecast is fully updated 4 times every day.

    • Sun 23 SEP 2018
    • Sun 23
    • 3C 4C
    • Mon 24 SEP 2018
    • Mon 24
    • -1C 1C
    • Tue 25 SEP 2018
    • Tue 25
    • -1C 1C
    • Wed 26 SEP 2018
    • Wed 26
    • 0C 2C
    • Thu 27 SEP 2018
    • Thu 27
    • 2C 3C
    • Fri 28 SEP 2018
    • Fri 28
    • 5C 6C
    • Sat 29 SEP 2018
    • Sat 29
    • 1C 2C
    • Sun 30 SEP 2018
    • Sun 30
    • -13C -10C
    • Mon 01 OCT 2018
    • Mon 01
    • -15C -11C
    • Tue 02 OCT 2018
    • Tue 02
    • -17C -14C
    • Wed 03 OCT 2018
    • Wed 03
    • -11C -2C
    • Thu 04 OCT 2018
    • Thu 04
    • -8C 0C
    • Fri 05 OCT 2018
    • Fri 05
    • -5C 1C
    • Sat 06 OCT 2018
    • Sat 06
    • -6C -2C
    • Sun 07 OCT 2018
    • Sun 07
    • -6C -1C
    • Mon 08 OCT 2018
    • Mon 08
    • -4C -2C

Date:

Time Type 0°C level Temp Chill Snow Cloud Speed Gust Dir Press
3:00 2498m 4°C 4_1 0cm 47% 1mph 1mph 1012mB
6:00 2425m 4°C 4_1 0cm 57% 1mph 1mph 1013mB
9:00 2355m 4°C 4_2 0cm 79% 2mph 3mph 1013mB
12:00 2277m 4°C 4_3 0cm 81% 3mph 3mph 1013mB
15:00 2243m 4°C 4_2 0cm 51% 2mph 3mph 1014mB
18:00 2247m 8°C 8_5 0cm 39% 5mph 8mph 1013mB
21:00 2332m 8°C 8_6 0cm 69% 6mph 10mph 1013mB
0:00 2308m 8°C 8_7 0cm 72% 7mph 11mph 1013mB
3:00 2147m 2°C 2_4 0cm 48% 4mph 5mph 1016mB
6:00 1748m 0°C 0_3 0cm 26% 3mph 4mph 1018mB
9:00 1645m -1°C -1_1 0cm 14% 1mph 2mph 1018mB
12:00 1873m 1°C 1_2 0cm 30% 2mph 2mph 1019mB
15:00 1929m 3°C 3_1 0cm 38% 1mph 1mph 1019mB
18:00 2080m 8°C 8_5 0cm 45% 5mph 7mph 1018mB
21:00 2296m 7°C 7_6 0cm 55% 6mph 9mph 1018mB
0:00 2337m 7°C 7_6 0cm 37% 6mph 10mph 1019mB
3:00 2194m 2°C 2_3 0cm 3% 3mph 4mph 1024mB
6:00 2081m 1°C 1_2 0cm 2% 2mph 3mph 1026mB
9:00 1734m 0°C 0_2 0cm 6% 2mph 3mph 1027mB
12:00 1670m 1°C 1_1 0cm 26% 1mph 2mph 1027mB
15:00 1937m 3°C 3_1 0cm 89% 1mph 1mph 1027mB
18:00 2130m 9°C 9_3 0cm 81% 3mph 4mph 1023mB
21:00 2398m 9°C 9_5 0cm 25% 5mph 7mph 1021mB
0:00 2466m 9°C 9_5 0cm 13% 5mph 8mph 1021mB
3:00 2406m 4°C 4_3 0cm 39% 3mph 4mph 1024mB
6:00 2350m 2°C 2_2 0cm 30% 2mph 3mph 1025mB
9:00 2344m 1°C 1_2 0cm 85% 2mph 3mph 1025mB
12:00 2328m 2°C 2_3 0cm 70% 3mph 3mph 1025mB
15:00 2360m 3°C 3_3 0cm 69% 3mph 3mph 1024mB
18:00 2369m 10°C 10_3 0cm 46% 3mph 5mph 1020mB
21:00 2528m 10°C 10_5 0cm 65% 5mph 8mph 1018mB
0:00 2559m 10°C 10_4 0cm 79% 4mph 7mph 1018mB
3:00 2530m 4°C 4_3 0cm 94% 3mph 4mph 1020mB
6:00 2491m 3°C 3_3 0cm 78% 3mph 4mph 1022mB
9:00 2441m 2°C 2_2 0cm 59% 2mph 3mph 1022mB
12:00 2391m 3°C 3_2 0cm 51% 2mph 3mph 1023mB
15:00 2353m 4°C 4_2 0cm 84% 2mph 2mph 1022mB
18:00 2365m 11°C 11_2 0cm 80% 2mph 3mph 1019mB
21:00 2541m 11°C 11_4 0cm 85% 4mph 6mph 1016mB
0:00 2654m 10°C 10_4 0cm 89% 4mph 7mph 1014mB
3:00 2752m 6°C 6_3 0cm 85% 3mph 3mph 1013mB
6:00 2899m 6°C 6_3 0cm 80% 3mph 3mph 1012mB
9:00 2994m 5°C 5_3 0cm 82% 3mph 5mph 1012mB
12:00 2900m 6°C 6_4 0cm 82% 4mph 5mph 1013mB
15:00 2835m 6°C 6_5 0cm 82% 5mph 6mph 1015mB
18:00 2588m 6°C 6_6 0cm 90% 6mph 9mph 1016mB
21:00 2230m 4°C 4_6 0cm 92% 6mph 9mph 1016mB
0:00 2234m 4°C 4_4 0cm 89% 4mph 7mph 1016mB
3:00 2208m 3°C 3_4 0cm 85% 4mph 5mph 1017mB
6:00 2231m 2°C 2_5 0cm 78% 5mph 6mph 1017mB
9:00 2140m 1°C 1_5 0cm 67% 5mph 7mph 1016mB
12:00 1652m 2°C 2_7 2cm 76% 7mph 11mph 1015mB
15:00 1599m 1°C 1_7 2cm 100% 7mph 11mph 1016mB
18:00 1582m 1°C 1_6 5cm 100% 6mph 11mph 1016mB
21:00 1621m 0°C 0_7 2cm 100% 7mph 11mph 1017mB
0:00 1597m 0°C 0_7 2cm 84% 7mph 10mph 1019mB
3:00 1115m -3°C -3_6 1cm 100% 6mph 10mph 1022mB
6:00 893m -4°C -4_6 1cm 95% 6mph 8mph 1024mB
9:00 167m -13°C -13_8 0cm 59% 8mph 9mph 1026mB
12:00 122m -10°C -10_8 0cm 63% 8mph 9mph 1026mB
15:00 329m -12°C -12_8 0cm 71% 8mph 10mph 1026mB
18:00 1260m -6°C -6_7 0cm 73% 7mph 8mph 1023mB
21:00 1511m -6°C -6_5 0cm 90% 5mph 6mph 1021mB
0:00 1507m -6°C -6_4 1cm 91% 4mph 5mph 1020mB
3:00 793m -9°C -9_6 0cm 96% 6mph 6mph 1024mB
6:00 445m -11°C -11_6 0cm 92% 6mph 7mph 1026mB
9:00 150m -13°C -13_7 0cm 86% 7mph 7mph 1027mB
12:00 0m -11°C -11_6 0cm 79% 6mph 7mph 1028mB
15:00 72m -13°C -13_6 0cm 65% 6mph 7mph 1028mB
18:00 988m -7°C -7_4 0cm 69% 4mph 4mph 1024mB
21:00 1355m -8°C -8_3 1cm 77% 3mph 3mph 1021mB
0:00 1354m -8°C -8_3 1cm 88% 3mph 4mph 1020mB
3:00 452m -11°C -11_6 1cm 93% 6mph 7mph 1024mB
6:00 9m -14°C -14_6 1cm 56% 6mph 7mph 1026mB
9:00 0m -16°C -16_4 0cm 1% 4mph 5mph 1026mB
12:00 0m -14°C -14_2 0cm 0% 2mph 3mph 1027mB
15:00 88m -13°C -13_2 0cm 0% 2mph 3mph 1027mB
18:00 1213m -6°C -6_6 0cm 0% 6mph 7mph 1022mB
Morning 0.322917mm 0 600m -10°C -10_3 0cm 56% 3mph 3mph 1027mB
Afternoon 0.0572917mm 0 1800m -2°C -2_3 0cm 0% 3mph 3mph 1026mB
Morning 0.0260417mm 0 913m -8°C -8_2 0cm 1% 2mph 3mph 1028mB
Afternoon 0.3125mm 0 2126m 0°C 0_6 0cm 0% 6mph 8mph 1021mB
Morning 0.572917mm 0 1560m -4°C -4_6 0cm 6% 6mph 6mph 1022mB
Afternoon 0.28125mm 0 2169m 1°C 1_10 0cm 26% 10mph 14mph 1017mB
Morning 0.0208333mm 0.875 1530m -4°C -4_8 7cm 51% 8mph 10mph 1024mB
Afternoon 0.00520833mm 0.125 1762m -2°C -2_9 0cm 46% 9mph 11mph 1021mB
Morning 0.0520833mm 0.0625 1359m -5°C -5_5 0cm 47% 5mph 6mph 1021mB
Afternoon 0.078125mm 0 1975m -1°C -1_10 1cm 66% 10mph 14mph 1011mB
Morning 0.015625mm 0.0625 1862m -2°C -2_13 1cm 73% 13mph 19mph 1005mB
Afternoon 0.0208333mm 0.0625 1718m -2°C -2_13 1cm 94% 13mph 17mph 1007mB

16 day outlook at a glance

Forecast issued: 23/09/2018 05:33:04

Chat

Your comments and questions. In a resort? Let us know what it's like!


Characters left 250

For terms and conditions see Readers Comments on the Cookie and privacy policy page.